Wind_Speed
44 47 45 41 40 24 10 15 5 37 11 9 6 4 4 8 8 16 4 5 3 3 5 7 4 3 2 9 8 5 5 3 4 3 2 3 3 4 6 4 2 1 4 0
43 45 45 41 39 29 13 6 5 24 21 5 4 5 5 8 10 11 7 8 6 5 6 4 5 5 7 11 9 4 6 2 5 3 6 5 5 6 4 2 3 4 5 3
43 43 45 42 38 30 15 4 4 11 19 16 4 3 5 6 11 6 7 6 6 5 7 4 6 7 5 6 13 8 2 1 2 4 2 5 5 6 3 5 2 2 3 8
42 43 44 44 40 36 9 8 2 4 4 7 5 4 2 6 7 10 17 6 11 5 6 8 8 7 7 3 13 7 3 5 4 6 6 4 5 3 6 6 3 4 8 6
39 42 42 43 41 34 33 7 4 4 3 7 5 7 4 5 5 3 6 3 8 5 4 3 4 7 4 3 8 6 7 1 4 4 9 4 6 7 5 2 3 7 12 4
37 41 40 40 41 39 19 11 7 2 6 4 4 2 3 4 8 3 3 4 2 4 2 13 14 12 13 6 5 4 4 4 3 3 7 2 4 4 5 3 6 2 4 3
34 37 38 38 39 36 31 19 8 4 2 3 2 2 3 3 7 4 7 6 2 3 14 4 1 3 7 7 7 6 2 2 1 2 2 4 2 3 4 9 7 7 9 6
28 33 34 35 35 34 29 23 12 4 1 3 0 5 3 7 7 3 2 4 9 12 7 0 3 2 5 3 3 4 2 1 2 2 2 1 5 1 2 1 2 5 3 5
24 27 31 31 32 31 25 24 17 6 3 2 2 2 3 0 3 7 2 6 6 9 2 3 2 1 4 5 7 4 1 3 2 3 3 7 1 3 1 1 2 4 5 4
19 23 27 29 30 29 26 20 18 8 0 1 2 1 1 3 2 1 5 10 9 10 2 3 2 2 3 1 2 3 3 3 2 2 1 4 2 3 4 4 3 3 3 3
15 19 23 25 28 29 28 20 18 11 4 4 3 3 3 2 1 3 5 4 5 6 4 3 2 1 3 2 3 2 3 2 2 1 1 5 6 4 4 3 5 2 3 5
11 15 21 23 25 28 28 20 18 13 3 3 6 7 5 3 2 2 2 2 1 3 1 2 2 2 2 3 2 3 3 4 3 5 2 2 7 2 5 7 4 3 5 6
9 11 17 21 25 28 30 20 16 10 3 4 5 5 6 6 4 3 1 1 1 2 2 2 1 2 2 1 4 1 3 5 2 3 3 5 5 6 10 9 1 3 5 8
9 11 15 18 24 28 31 23 13 2 3 2 2 5 6 6 9 7 4 5 3 1 2 2 1 1 2 2 2 3 3 8 4 5 5 0 7 12 16 10 3 5 7 10
11 12 17 17 22 28 28 20 2 4 5 3 5 7 10 9 9 7 6 4 3 3 3 2 3 2 1 2 1 3 11 7 5 5 13 6 7 20 20 13 9 8 11 10
13 12 17 17 19 27 25 3 3 4 6 5 2 3 5 5 7 8 6 5 5 4 3 3 2 2 2 2 3 9 21 15 11 4 17 6 8 15 15 12 11 10 8 10
14 13 16 17 19 26 14 6 4 5 8 3 5 3 2 5 6 5 7 8 5 6 3 3 3 5 5 2 4 7 16 21 17 10 13 9 13 8 15 12 10 8 8 10
14 14 16 17 20 25 12 6 7 7 5 4 1 3 2 6 4 4 5 5 4 6 3 2 3 2 2 4 14 10 8 20 19 18 15 8 8 12 10 8 8 8 8 9
16 14 14 16 16 6 2 8 13 11 9 3 4 3 3 6 3 3 4 5 1 4 3 3 4 2 5 10 13 19 22 21 14 21 16 13 11 10 10 10 10 10 9 10
14 11 8 5 4 8 15 7 2 4 7 7 5 3 2 5 4 2 2 2 2 2 2 3 2 4 30 28 23 13 16 21 17 21 18 18 15 12 10 10 9 8 9 10
8 7 7 8 12 10 4 2 3 5 3 8 6 10 4 6 3 3 5 2 1 1 3 3 2 4 5 6 10 21 16 23 20 14 9 8 8 8 9 10 8 7 8 9
10 8 6 9 4 3 1 3 1 4 4 8 8 6 5 6 5 3 2 2 2 4 2 2 3 5 11 11 9 13 20 20 26 19 12 8 8 8 9 9 8 7 6 8
12 6 6 5 5 1 6 6 4 2 9 10 8 3 5 5 4 5 2 2 4 1 1 4 5 9 12 12 10 15 18 20 22 18 14 10 9 9 7 7 7 6 6 7
10 9 6 6 5 5 5 4 4 6 8 18 15 7 3 3 3 2 4 2 2 1 2 7 3 9 15 13 12 18 23 22 19 15 12 10 9 8 7 7 7 7 7 7
8 8 6 8 12 5 7 10 7 8 16 21 10 6 4 1 3 2 3 1 5 6 5 3 6 17 18 11 10 19 22 19 16 13 11 10 8 8 9 9 9 8 8 8
8 10 4 5 5 5 11 15 12 15 20 10 6 4 3 4 3 3 7 5 7 3 3 4 12 15 18 15 13 19 21 18 14 12 11 9 9 10 10 10 10 9 9 9
8 8 25 13 8 10 16 18 15 22 22 4 4 7 6 3 3 4 5 5 2 2 9 16 19 21 20 18 14 17 21 19 15 12 10 9 11 12 12 11 11 10 10 9
Wind_Direction
22 19 16 13 10 19 27 44 46 10 25 53 42 47 25 14 357 20 18 5 2 313 357 26 55 107 190 18 322 23 13 348 75 199 202 40 223 167 180 135 246 117 121 48
23 21 19 16 14 11 19 57 36 23 53 61 8 15 4 55 5 11 360 4 15 336 4 79 57 47 30 27 25 18 341 37 103 36 336 318 222 221 182 111 97 208 124 187
21 21 22 21 20 17 30 56 27 22 53 52 81 19 12 1 17 23 30 25 358 351 13 352 26 8 356 359 11 4 316 289 353 160 224 142 189 204 175 147 130 194 164 142
23 22 23 24 24 27 40 46 50 27 344 1 26 56 25 359 7 2 15 17 14 357 14 4 8 1 332 16 3 351 52 32 351 295 269 253 162 133 167 192 199 163 165 111
24 22 21 21 23 27 46 63 56 55 25 333 41 6 348 15 320 56 338 48 330 24 74 123 290 353 2 350 323 13 347 83 343 290 340 202 92 20 14 10 49 108 119 106
21 21 22 22 23 26 41 52 66 35 0 24 62 276 281 301 337 312 15 333 55 359 323 313 286 276 267 263 313 346 31 354 4 301 337 355 52 18 334 76 46 11 192 83
20 22 24 23 25 28 30 37 53 45 295 80 178 277 297 281 307 217 314 3 90 286 325 311 310 269 271 274 269 223 65 351 330 283 326 210 77 46 47 102 64 50 78 59
20 21 22 23 24 24 25 29 30 65 356 337 326 331 293 332 359 345 277 336 325 319 314 321 341 342 4 305 209 193 167 108 334 147 65 0 206 7 86 123 129 60 85 36
15 20 21 20 18 18 18 22 23 21 125 298 332 303 18 275 315 348 318 325 346 358 285 63 102 152 228 309 334 19 140 99 85 324 197 198 134 153 218 212 271 93 84 48
10 9 19 16 18 19 16 11 12 7 52 227 320 76 155 358 2 260 314 336 354 8 38 65 77 295 186 302 279 331 341 6 166 254 249 289 163 166 163 137 188 121 74 44
2 360 5 12 10 15 13 3 1 0 301 274 284 259 216 209 273 118 327 358 351 17 51 89 274 89 271 47 228 186 174 143 217 47 176 260 157 122 205 125 125 103 41 15
346 352 350 359 359 5 8 1 348 344 291 287 291 260 252 251 228 328 15 121 179 53 56 11 26 319 15 165 276 342 304 187 201 200 222 152 168 144 163 155 110 19 353 349
318 338 336 344 346 350 357 355 342 334 312 281 255 250 253 239 229 256 247 173 131 143 128 10 267 273 116 220 252 171 255 176 199 46 271 181 187 182 190 180 83 342 318 326
291 311 316 330 337 340 347 345 336 5 340 312 241 259 261 238 232 240 257 258 235 191 151 236 246 218 178 245 236 201 193 140 186 266 297 149 216 208 195 192 239 299 313 323
279 294 302 318 329 333 343 339 105 89 32 278 290 280 261 240 227 227 242 243 188 162 189 197 227 265 38 324 34 249 191 186 167 221 189 173 187 196 205 224 262 281 306 317
274 288 294 307 322 322 343 336 186 193 358 320 326 270 260 232 207 208 212 205 186 211 233 239 206 249 197 220 236 253 209 207 203 185 166 176 165 192 212 231 258 277 296 309
270 283 287 296 307 314 332 265 242 266 324 284 303 293 229 205 190 192 207 204 196 218 244 222 223 205 220 192 235 245 211 209 204 187 176 172 191 210 223 229 260 283 303 310
286 284 288 296 301 304 305 249 239 279 270 229 140 271 270 194 177 164 169 162 187 214 258 223 207 205 229 261 239 238 213 198 199 195 202 204 183 196 217 250 264 278 293 300
285 276 285 292 289 283 235 279 274 244 220 217 177 172 228 177 159 152 147 176 143 193 215 227 163 224 233 232 232 224 213 200 201 196 203 209 214 224 233 254 262 273 283 300
258 271 268 246 252 265 310 295 196 173 195 225 223 190 188 169 157 119 134 180 218 222 234 156 173 257 258 258 251 249 232 212 201 184 204 217 223 225 237 247 252 270 294 310
232 228 230 253 275 298 245 226 197 180 235 210 212 193 155 182 132 179 195 194 190 114 230 170 249 261 251 296 277 226 225 215 207 209 215 214 231 234 233 238 251 273 294 309
205 205 240 269 233 189 145 227 258 196 226 170 170 173 169 148 146 126 161 160 58 239 132 77 261 252 271 284 281 221 216 209 210 218 229 234 247 251 232 227 241 262 289 307
202 222 201 193 180 234 199 205 254 238 177 178 161 150 163 132 150 102 109 142 222 95 56 237 236 265 290 294 269 223 205 200 204 215 225 238 250 242 230 236 253 272 288 303
189 191 206 193 188 233 197 190 184 168 170 161 150 123 150 134 119 123 173 183 83 18 260 235 249 320 328 303 259 219 203 196 201 210 225 241 244 247 252 252 259 271 286 295
197 202 216 208 220 208 189 196 162 163 164 151 127 108 148 142 129 183 94 69 248 213 233 234 334 336 337 314 249 214 210 208 209 219 236 239 247 255 256 259 264 273 282 291
214 219 214 205 153 182 198 204 195 185 168 146 130 123 148 209 160 145 212 157 226 244 223 310 335 345 345 331 278 231 217 219 218 228 234 240 258 256 250 251 257 265 274 280
214 213 212 200 215 211 217 217 217 194 169 175 149 181 200 103 182 226 192 212 228 322 318 318 314 314 315 308 294 243 224 223 225 233 236 248 257 254 251 249 252 256 262 268
Height
1505 1497 1486 1477 1469 1464 1461 1459 1465 1461 1457 1454 1465 1483 1479 1480 1480 1477 1475 1473 1472 1474 1466 1468 1474 1473 1466 1464 1459 1454 1455 1450 1450 1446 1441 1445 1443 1446 1452 1466 1461 1465 1470 1485
1509 1501 1492 1483 1474 1466 1462 1466 1469 1468 1459 1482 1488 1484 1485 1485 1481 1481 1477 1478 1476 1471 1468 1476 1468 1466 1466 1463 1463 1460 1459 1450 1453 1463 1457 1444 1445 1444 1445 1447 1454 1455 1472 1482
1512 1505 1498 1489 1481 1472 1468 1470 1479 1475 1474 1485 1490 1492 1492 1489 1488 1486 1484 1485 1476 1473 1471 1469 1470 1471 1467 1465 1464 1461 1460 1452 1447 1449 1444 1441 1446 1443 1445 1450 1460 1455 1457 1474
1516 1510 1503 1495 1488 1480 1475 1477 1491 1492 1498 1491 1494 1494 1501 1500 1497 1491 1488 1484 1487 1484 1485 1477 1478 1476 1472 1468 1470 1464 1463 1455 1454 1451 1447 1440 1439 1443 1447 1451 1450 1454 1460 1474
1521 1515 1508 1502 1494 1487 1480 1487 1492 1496 1496 1495 1495 1498 1506 1504 1500 1498 1498 1497 1490 1490 1494 1495 1496 1490 1485 1483 1472 1469 1468 1460 1461 1455 1442 1435 1456 1461 1453 1452 1455 1460 1468 1486
1524 1518 1512 1506 1500 1493 1491 1494 1496 1497 1500 1499 1503 1509 1504 1503 1499 1496 1496 1496 1496 1494 1493 1490 1488 1487 1485 1484 1483 1478 1478 1475 1466 1455 1452 1445 1460 1485 1480 1474 1483 1482 1466 1491
1527 1522 1516 1511 1506 1502 1499 1498 1497 1498 1508 1502 1506 1503 1502 1500 1499 1501 1495 1495 1496 1492 1489 1486 1486 1484 1482 1481 1481 1480 1480 1481 1471 1458 1453 1445 1485 1486 1484 1486 1490 1490 1489 1493
1529 1524 1520 1516 1512 1508 1504 1502 1501 1500 1507 1503 1503 1502 1501 1498 1496 1496 1494 1493 1493 1489 1486 1484 1489 1483 1486 1479 1477 1476 1474 1479 1480 1474 1475 1483 1482 1486 1486 1486 1489 1495 1493 1494
1531 1526 1522 1519 1516 1511 1508 1504 1502 1501 1503 1506 1502 1501 1501 1504 1502 1497 1493 1492 1490 1488 1486 1493 1503 1508 1501 1493 1480 1473 1474 1475 1479 1475 1467 1471 1484 1487 1487 1486 1475 1493 1493 1494
1531 1527 1523 1520 1517 1513 1510 1507 1504 1502 1502 1502 1502 1501 1503 1501 1500 1502 1497 1494 1490 1489 1495 1508 1509 1500 1495 1500 1497 1492 1487 1488 1481 1476 1483 1486 1483 1486 1487 1480 1481 1490 1490 1491
1530 1527 1524 1520 1517 1514 1511 1508 1504 1504 1502 1501 1500 1500 1499 1500 1501 1505 1497 1498 1496 1495 1506 1509 1507 1505 1500 1500 1504 1501 1500 1495 1488 1496 1480 1476 1483 1488 1486 1484 1486 1487 1487 1488
1528 1526 1524 1519 1517 1513 1509 1506 1502 1499 1499 1501 1499 1498 1498 1499 1499 1500 1499 1500 1500 1501 1504 1505 1503 1499 1504 1507 1506 1498 1505 1495 1493 1487 1480 1482 1483 1483 1484 1485 1486 1486 1486 1484
1525 1524 1522 1518 1514 1512 1507 1503 1501 1497 1497 1497 1496 1495 1497 1496 1497 1499 1501 1501 1501 1502 1501 1501 1501 1508 1502 1510 1500 1497 1494 1493 1498 1491 1484 1481 1480 1481 1482 1484 1483 1484 1486 1485
1521 1521 1519 1516 1512 1510 1506 1502 1498 1497 1497 1497 1495 1494 1494 1493 1495 1496 1498 1499 1499 1501 1501 1501 1501 1506 1498 1500 1495 1495 1485 1489 1490 1489 1481 1479 1478 1479 1481 1482 1482 1484 1484 1483
1516 1518 1517 1513 1509 1507 1503 1500 1498 1499 1501 1498 1491 1491 1491 1490 1490 1493 1495 1496 1498 1497 1499 1500 1501 1495 1496 1494 1494 1491 1472 1470 1477 1472 1465 1469 1470 1474 1477 1479 1479 1479 1478 1476
1510 1513 1513 1511 1506 1503 1500 1498 1499 1496 1496 1495 1493 1490 1489 1489 1488 1490 1492 1494 1495 1498 1496 1494 1493 1493 1495 1495 1495 1456 1456 1457 1458 1459 1463 1466 1468 1471 1473 1474 1475 1475 1475 1474
1505 1507 1507 1506 1503 1499 1498 1498 1496 1495 1494 1493 1491 1488 1486 1487 1488 1489 1490 1491 1494 1496 1494 1491 1491 1491 1491 1492 1481 1446 1448 1453 1456 1459 1462 1466 1466 1467 1470 1472 1472 1472 1472 1470
1500 1502 1503 1501 1499 1494 1491 1489 1491 1492 1494 1491 1491 1487 1486 1486 1485 1487 1488 1490 1492 1492 1492 1490 1489 1490 1489 1482 1447 1446 1446 1449 1452 1454 1457 1459 1462 1465 1466 1467 1468 1468 1469 1468
1494 1497 1498 1495 1493 1491 1489 1488 1487 1487 1492 1486 1485 1487 1487 1483 1483 1485 1487 1487 1491 1489 1488 1487 1488 1485 1479 1444 1440 1442 1443 1443 1445 1451 1454 1456 1458 1461 1462 1463 1463 1464 1465 1464
1489 1494 1494 1489 1488 1487 1488 1482 1482 1483 1484 1483 1478 1476 1479 1481 1482 1485 1488 1486 1487 1492 1486 1485 1485 1470 1438 1436 1435 1437 1441 1443 1444 1447 1451 1452 1453 1456 1457 1460 1460 1459 1459 1459
1484 1488 1487 1485 1484 1484 1482 1481 1482 1481 1480 1474 1472 1472 1473 1477 1479 1481 1484 1485 1484 1492 1483 1484 1480 1463 1433 1429 1429 1429 1435 1439 1443 1445 1446 1448 1449 1451 1452 1454 1454 1454 1454 1454
1479 1481 1480 1481 1480 1480 1482 1478 1476 1475 1468 1464 1467 1470 1471 1473 1475 1478 1483 1485 1487 1485 1482 1487 1475 1438 1427 1426 1428 1428 1431 1434 1439 1442 1444 1445 1447 1448 1449 1450 1450 1450 1449 1449
1474 1476 1474 1474 1476 1480 1475 1467 1470 1467 1457 1459 1462 1466 1468 1470 1473 1475 1479 1485 1484 1480 1488 1472 1445 1427 1427 1426 1426 1428 1428 1431 1435 1439 1442 1443 1444 1445 1445 1446 1446 1446 1445 1444
1467 1466 1465 1464 1464 1458 1449 1448 1447 1447 1448 1452 1457 1462 1468 1468 1471 1473 1476 1478 1480 1487 1490 1456 1434 1427 1426 1424 1423 1426 1426 1428 1432 1435 1438 1440 1440 1441 1442 1442 1443 1443 1442 1441
1455 1454 1448 1445 1437 1437 1438 1441 1443 1444 1447 1449 1454 1460 1464 1468 1470 1471 1474 1480 1480 1469 1448 1435 1428 1426 1424 1422 1421 1424 1426 1428 1429 1432 1434 1436 1437 1437 1438 1439 1439 1439 1438 1438
1443 1436 1433 1429 1432 1434 1436 1437 1438 1440 1444 1448 1451 1457 1461 1463 1464 1470 1467 1470 1458 1435 1432 1428 1427 1425 1423 1422 1421 1422 1425 1426 1427 1428 1430 1432 1433 1434 1435 1435 1435 1435 1435 1434
1423 1420 1419 1419 1421 1422 1424 1428 1430 1434 1439 1442 1445 1448 1445 1454 1457 1458 1452 1445 1431 1428 1428 1427 1426 1424 1422 1420 1419 1419 1421 1423 1424 1425 1426 1427 1429 1430 1431 1432 1432 1431 1431 1431